Weather History for Lago Vista, TX

Change the Weather History Date:

Sunday, August 10, 2014

  Actual Average (KATT) Record (KATT)
Temperature  
Mean Temperature 88 °F 86 °F  
Max Temperature 100 °F 98 °F 107 °F (2012)
Min Temperature 77 °F 75 °F 65 °F (1989)
Degree Days  
Heating Degree Days 0 0  
Month to date heating degree days 0  
Since 1 June heating degree days 0  
Since 1 July heating degree days 0  
Cooling Degree Days 24 21  
Month to date cooling degree days 210  
Year to date cooling degree days 1959  
Since 1 June cooling degree days 1346  
Growing Degree Days 38 (Base 50)    
Moisture  
Dew Point 65 °F    
Average Humidity 50    
Maximum Humidity 78    
Minimum Humidity 22    
Precipitation  
Precipitation 0.00 in 0.06 in 1.73 in (2002)
Month to date precipitation 0.60  
Year to date precipitation 20.34  
Snow  
Snow 0.00 in - - ()
Month to date snowfall  
Since 1 June snowfall  
Since 1 July snowfall  
Snow Depth -    
Sea Level Pressure  
Sea Level Pressure 30.03 in    
Wind  
Wind Speed 7 mph (South)    
Max Wind Speed 12 mph    
Max Gust Speed 20 mph    
Visibility 10 miles    
Events      
T = Trace of Precipitation, MM = Missing Value Source: NWS Daily Summary

Daily Weather History Graph

Daily Weather History Graph

Search for Another Location

Airport:

Trip Planner

Search our weather history database for the weather conditions in past years. The results will help you decide how hot, cold, wet, or windy it might be!

Date:

Astronomy

Aug. 10, 2014 Rise Set
Actual Time 6:55 AM CDT 8:18 PM CDT
Civil Twilight 6:29 AM CDT 8:43 PM CDT
Nautical Twilight 5:59 AM CDT 9:14 PM CDT
Astronomical Twilight 5:27 AM CDT 9:46 PM CDT
Moon 8:12 PM CDT (8/10) 6:46 AM CDT (8/10)
Length of Visible Light 14h 13m
Length of Day
13h 22m
Full, 100% of the Moon is Illuminated
Aug 10
Full
Aug 10
Full
Aug 17
Last Quarter
Aug 25
New
Sep 2
First Quarter

Hourly Weather History & Observations

Time (CDT) Temp. Heat Index Dew Point Humidity Pressure Visibility Wind Dir Wind Speed Gust Speed Precip Events Conditions
12:15 AM 85.1 °F 87.9 °F 67.1 °F 55% 30.03 in 10.0 mi SSE 9.2 mph - N/A   Clear
12:35 AM 84.4 °F 87.6 °F 68.2 °F 58% 30.03 in 10.0 mi South 8.1 mph - N/A   Clear
12:55 AM 83.8 °F 87.5 °F 68.9 °F 61% 30.03 in 10.0 mi South 9.2 mph 16.1 mph N/A   Clear
1:15 AM 83.5 °F 87.4 °F 69.6 °F 63% 30.04 in 10.0 mi South 10.4 mph 19.6 mph N/A   Clear
1:35 AM 82.9 °F 86.7 °F 69.8 °F 64% 30.04 in 10.0 mi South 6.9 mph - N/A   Clear
1:55 AM 82.8 °F 86.9 °F 70.3 °F 66% 30.04 in 10.0 mi South 6.9 mph - N/A   Clear
2:15 AM 82.4 °F 86.7 °F 70.7 °F 68% 30.03 in 10.0 mi South 9.2 mph 18.4 mph N/A   Clear
2:35 AM 81.7 °F 85.8 °F 70.9 °F 70% 30.03 in 10.0 mi South 8.1 mph - N/A   Clear
2:55 AM 81.5 °F 85.5 °F 70.9 °F 70% 30.02 in 10.0 mi SSW 6.9 mph - N/A   Clear
3:15 AM 81.1 °F 84.9 °F 70.7 °F 70% 30.02 in 10.0 mi SSW 10.4 mph - N/A   Clear
3:35 AM 81.0 °F 84.1 °F 69.3 °F 67% 30.02 in 10.0 mi SSW 5.8 mph - N/A   Clear
3:55 AM 80.6 °F 83.5 °F 68.7 °F 67% 30.02 in 10.0 mi SSW 11.5 mph 16.1 mph N/A   Clear
4:15 AM 80.4 °F 83.2 °F 68.4 °F 67% 30.02 in 10.0 mi SSW 5.8 mph - N/A   Clear
4:35 AM 79.7 °F - 68.4 °F 68% 30.02 in 10.0 mi SSW 5.8 mph - N/A   Clear
4:55 AM 79.7 °F - 68.5 °F 69% 30.01 in 10.0 mi SSW 5.8 mph - N/A   Clear
5:15 AM 79.3 °F - 68.9 °F 70% 30.01 in 10.0 mi SSW 6.9 mph - N/A   Clear
5:35 AM 79.0 °F - 69.3 °F 72% 30.02 in 10.0 mi SSW 5.8 mph - N/A   Clear
5:55 AM 78.6 °F - 69.3 °F 73% 30.03 in 10.0 mi SSW 3.5 mph - N/A   Clear
6:15 AM 78.3 °F - 69.8 °F 75% 30.03 in 10.0 mi SSW 4.6 mph - N/A   Clear
6:35 AM 78.1 °F - 70.0 °F 76% 30.03 in 10.0 mi SSW 5.8 mph - N/A   Clear
6:55 AM 77.9 °F - 70.2 °F 77% 30.04 in 10.0 mi SSW 4.6 mph - N/A   Clear
7:15 AM 77.9 °F - 70.3 °F 77% 30.04 in 10.0 mi SSW 5.8 mph - N/A   Clear
7:35 AM 77.9 °F - 70.7 °F 78% 30.06 in 10.0 mi SW 4.6 mph - N/A   Clear
7:55 AM 78.3 °F - 70.7 °F 77% 30.06 in 10.0 mi WSW 3.5 mph - N/A   Clear
8:15 AM 78.8 °F - 70.7 °F 76% 30.07 in 10.0 mi SW 5.8 mph - N/A   Clear
8:35 AM 79.7 °F - 71.1 °F 75% 30.07 in 10.0 mi WSW 8.1 mph - N/A   Clear
8:55 AM 80.8 °F 84.6 °F 70.9 °F 72% 30.07 in 10.0 mi WSW 8.1 mph - N/A   Clear
9:15 AM 81.7 °F 85.4 °F 70.2 °F 68% 30.08 in 10.0 mi SW 9.2 mph - N/A   Clear
9:35 AM 82.9 °F 87.0 °F 70.0 °F 65% 30.08 in 10.0 mi WSW 5.8 mph - N/A   Clear
9:55 AM 84.4 °F 88.2 °F 69.1 °F 60% 30.08 in 10.0 mi West 5.8 mph - N/A   Clear
10:15 AM 85.5 °F 88.8 °F 68.4 °F 56% 30.08 in 10.0 mi SSW 6.9 mph - N/A   Clear
10:35 AM 86.9 °F 90.6 °F 68.2 °F 54% 30.08 in 10.0 mi West 3.5 mph - N/A   Clear
10:55 AM 87.8 °F 91.1 °F 67.5 °F 51% 30.09 in 10.0 mi WSW 5.8 mph - N/A   Clear
11:15 AM 89.6 °F 92.2 °F 66.4 °F 46% 30.09 in 10.0 mi West 5.8 mph - N/A   Clear
11:35 AM 89.8 °F 91.8 °F 65.3 °F 44% 30.09 in 10.0 mi SW 6.9 mph - N/A   Clear
11:55 AM 91.6 °F 93.1 °F 64.4 °F 40% 30.09 in 10.0 mi SW 8.1 mph - N/A   Clear
12:15 PM 92.1 °F 93.2 °F 63.5 °F 38% 30.08 in 10.0 mi WSW 9.2 mph - N/A   Clear
12:35 PM 93.6 °F 94.6 °F 63.0 °F 36% 30.08 in 10.0 mi South 5.8 mph - N/A   Clear
12:55 PM 94.5 °F 94.4 °F 60.6 °F 32% 30.07 in 10.0 mi South 8.1 mph - N/A   Clear
1:15 PM 95.7 °F 95.5 °F 59.7 °F 30% 30.07 in 10.0 mi ESE 3.5 mph - N/A   Clear
1:35 PM 95.9 °F 95.3 °F 59.0 °F 29% 30.06 in 10.0 mi South 8.1 mph - N/A   Clear
1:55 PM 95.9 °F 95.3 °F 58.8 °F 29% 30.06 in 10.0 mi Calm Calm - N/A   Clear
2:15 PM 98.1 °F 97.2 °F 57.4 °F 26% 30.05 in 10.0 mi SE 3.5 mph - N/A   Clear
2:35 PM 96.6 °F 95.6 °F 57.7 °F 27% 30.05 in 10.0 mi SSE 4.6 mph - N/A   Clear
2:55 PM 96.8 °F 96.2 °F 58.6 °F 28% 30.04 in 10.0 mi ESE 9.2 mph - N/A   Clear
3:15 PM 99.1 °F 97.9 °F 56.8 °F 24% 30.04 in 10.0 mi SSE 3.5 mph - N/A   Scattered Clouds
3:35 PM 100.2 °F 98.6 °F 55.4 °F 22% 30.03 in 10.0 mi ESE 6.9 mph - N/A   Clear
3:55 PM 99.3 °F 98.2 °F 56.5 °F 24% 30.02 in 10.0 mi SE 6.9 mph - N/A   Scattered Clouds
4:15 PM 99.9 °F 99.4 °F 58.3 °F 25% 30.01 in 10.0 mi East 4.6 mph - N/A   Scattered Clouds
4:35 PM 99.7 °F 99.6 °F 59.2 °F 26% 30.00 in 10.0 mi SSE 6.9 mph - N/A   Scattered Clouds
4:55 PM 99.7 °F 99.2 °F 58.5 °F 25% 30.00 in 10.0 mi SE 6.9 mph 18.4 mph N/A   Clear
5:15 PM 99.1 °F 98.8 °F 58.3 °F 26% 29.99 in 10.0 mi SE 4.6 mph - N/A   Clear
5:35 PM 99.0 °F 98.1 °F 57.9 °F 25% 29.98 in 10.0 mi Calm Calm - N/A   Clear
5:55 PM 98.1 °F 97.2 °F 57.2 °F 26% 29.97 in 10.0 mi ESE 4.6 mph - N/A   Clear
6:15 PM 98.4 °F 97.3 °F 57.4 °F 25% 29.96 in 10.0 mi SE 9.2 mph - N/A   Clear
6:35 PM 97.3 °F 96.6 °F 58.1 °F 27% 29.96 in 10.0 mi SSE 3.5 mph - N/A   Clear
6:55 PM 96.8 °F 95.8 °F 58.1 °F 27% 29.96 in 10.0 mi ESE 6.9 mph - N/A   Clear
7:15 PM 95.9 °F 95.3 °F 58.6 °F 29% 29.96 in 10.0 mi SSE 5.8 mph - N/A   Clear
7:35 PM 94.6 °F 93.9 °F 58.6 °F 30% 29.96 in 10.0 mi SE 3.5 mph - N/A   Clear
7:55 PM 93.4 °F 92.8 °F 59.2 °F 32% 29.96 in 10.0 mi Calm Calm - N/A   Clear
8:15 PM 91.9 °F 91.5 °F 59.9 °F 34% 29.97 in 10.0 mi Calm Calm - N/A   Clear
8:35 PM 90.7 °F 91.7 °F 63.1 °F 40% 29.98 in 10.0 mi SE 6.9 mph - N/A   Clear
8:55 PM 90.1 °F 93.1 °F 66.9 °F 46% 29.99 in 10.0 mi SE 8.1 mph - N/A   Clear
9:15 PM 89.4 °F 91.9 °F 66.2 °F 46% 30.00 in 10.0 mi SSE 5.8 mph - N/A   Clear
9:35 PM 88.7 °F 90.8 °F 65.5 °F 46% 30.01 in 10.0 mi SSE 9.2 mph 16.1 mph N/A   Clear
9:55 PM 87.8 °F 90.4 °F 66.2 °F 49% 30.03 in 10.0 mi SSE 4.6 mph 16.1 mph N/A   Clear
10:15 PM 86.9 °F 89.9 °F 67.1 °F 52% 30.04 in 10.0 mi SE 8.1 mph - N/A   Clear
10:35 PM 86.5 °F 89.6 °F 67.6 °F 53% 30.05 in 10.0 mi SSE 6.9 mph 16.1 mph N/A   Clear
10:55 PM 86.2 °F 89.7 °F 68.2 °F 55% 30.05 in 10.0 mi South 5.8 mph - N/A   Clear
11:15 PM 85.6 °F 89.7 °F 69.1 °F 58% 30.05 in 10.0 mi South 9.2 mph - N/A   Clear
11:35 PM 85.1 °F 89.1 °F 69.3 °F 59% 30.06 in 10.0 mi South 4.6 mph - N/A   Clear
11:55 PM 84.6 °F 88.5 °F 69.4 °F 60% 30.07 in 10.0 mi South 5.8 mph - N/A   Clear